Location: Unspecified
(36.9558°N, 0.0000°E)
Time: 07:33:50
(UTC+00:00)

SPOT 1 Rocket Y - Visible Passes

Search period start: 04 April 2026 00:00
Search period end: 14 April 2026 00:00
Orbit: 781 x 829 km, 98.3° (Epoch: 28 March)

Date Brightness Start Highest point End Pass type
(mag) Time Alt. Az. Time Alt. Az. Time Alt. Az.
4 Apr 8.4 19:03:40 10° SW 19:07:14 19° W 19:10:50 10° NW visible
7 Apr 9.1 19:31:21 10° W 19:31:41 10° W 19:32:00 10° W visible
8 Apr 8.4 19:02:36 10° SW 19:06:12 19° W 19:09:50 10° NW visible
11 Apr 9.0 19:30:01 10° W 19:30:38 10° W 19:31:16 10° W visible
12 Apr 8.4 19:01:31 10° SW 19:05:09 19° W 19:08:49 10° NW visible
